User: anonymous   Login
Location: Bergnershof
(48.9468°N, 10.9431°E)
Time: 16:15:28
(UTC+00:00)
Language:

Aureole 2 Rocket - Orbit

View from above orbital plane
View from above orbital plane
View from above satellite
View from above satellite

Ground track
Ground track

The orbit data is extracted from the following two-line orbital elements,

1 07004U 73107B   21135.46551652  .00099284  54815-5  25249-3 0  9990
2 07004  73.9085 114.3064 0041211 325.2994  34.5553 15.93801403459509
Epoch (UTC): 15 May 2021 11:10:20
Eccentricity: 0.0041211
inclination: 73.9085°
perigee height: 264 km
apogee height: 319 km
right ascension of ascending node: 114.3064°
argument of perigee: 325.2994°
revolutions per day: 15.93801403
mean anomaly at epoch: 34.5553°
orbit number at epoch: 45950

The dashed part of the orbit path shows where the satellite is in the earth's shadow,  

DLR